Погода в Вировитице

Хорватия     45°49′56″N   17°23′12″E
темп.,
°C
ветер,
м/с
пор.,
м/с
влажн.,
%
обл.,
%
осадки,
мм/ч
давл.,
гПа
погр.,
м
3 августа, вт
вт323:00+17зсз116115 0.0 101611
02:00+15зсз117330 0.1 101611
05:00+15ююз11765 0.0 101611
08:00+20всв01555 0.0 1016221
11:00+27з1239100 0.0 10161363
14:00+31з35241 0.0 10132885
17:00+31з47244 0.0 10112644
20:00+24з124196 0.0 101111
4 августа, ср
ср423:00+21юз3442100 0.0 101355
02:00+20юз3543100 0.0 101371
05:00+18юз2247100 0.0 101323
08:00+22ссз2242100 0.0 1014238
11:00+27з243399 0.0 1013969
14:00+31зсз362546 0.0 10122326
17:00+32зсз3624100 0.0 10102280
20:00+26с0137100 0.0 100911
5 августа, чт
чт523:00+22юв1147100 0.0 100911
02:00+24вюв3541100 0.0 1007122
05:00+21юз1147100 0.0 100612
08:00+20зюз4769100 0.3 1007222
11:00+21з3764100 0.6 1007470
14:00+29зюз393482 0.6 10062678
17:00+18ссз7129011 0.6 1007405
20:00+15зсз22919 1.3 100931
6 августа, пт
пт623:00+14юз339595 0.0 101051
02:00+13зюз2291100 0.0 101023
05:00+13з1191100 0.0 101011
08:00+17з007579 0.0 1011204
11:00+25ссв11425 0.0 10101258
14:00+29ссв11294 0.0 10092121
17:00+29сз22272 0.0 10082577
20:00+23сз22432 0.0 100912
7 августа, сб
сб723:00+19ю21535 0.0 101011
02:00+17юв22582 0.0 101111
05:00+16юв22600 0.0 101117
08:00+23юв12410 0.0 1012205
11:00+31ююв24240 0.0 10111651
14:00+34ю45175 0.0 10092695
17:00+35ююз46175 0.0 10072778
20:00+26ю22360 0.0 100715